Regional Weather Roundup
Issued by NWS Little Rock, AR

Home | Current Version | Previous Version | Text Only | Print | Product List | Glossary Off
Versions: 1 2 3 4 5 6 7 8 9 10 11 12 13 14 15 16 17 18 19 20 21 22 23 24 25 26 27 28 29 30 31 32 33 34 35 36 37 38 39 40 41 42 43 44 45 46 47 48 49 50

000
ASUS44 KLZK 260105
RWRLZK

WEATHER ROUNDUP FOR ARKANSAS
NATIONAL WEATHER SERVICE LITTLE ROCK AR
800 PM CDT THU AUG 25 2016

NOTE: "FAIR" INDICATES FEW OR NO CLOUDS BELOW 12,000 FEET WITH NO
SIGNIFICANT WEATHER AND/OR OBSTRUCTIONS TO VISIBILITY.

ARZ001-003-010-029-260200-
NORTHWEST ARKANSAS

CITY           SKY/WX    TMP DP  RH WIND       PRES   REMARKS
FAYETTEVILLE   CLOUDY    80  72  76 S12G22    30.06R
FORT SMITH     CLOUDY    81  68  64 S8        30.02S
HARRISON       CLOUDY    78  72  81 S6        30.08R
BENTONVILLE    CLOUDY    84  66  54 S7        30.07R HX  86
ROGERS         CLOUDY    83  70  64 S7        30.08R HX  87
SILOAM SPGS    CLOUDY    84  64  51 S9        30.07R HX  86
HIGHFILL       CLOUDY    85  70  60 S8G17     30.06R HX  89
SPRINGDALE     CLEAR     82  72  69 S8        30.08R HX  87
$$

ARZ004-005-016-260200-
NORTH CENTRAL ARKANSAS

CITY           SKY/WX    TMP DP  RH WIND       PRES   REMARKS
BATESVILLE     CLOUDY    82  75  78 SE3       30.05S HX  89
FLIPPIN        CLOUDY    81  72  74 SE3       30.03R
MTN HOME       CLOUDY    80  75  84 S3        30.05R HX  85
$$

ARZ040-041-260200-
WEST CENTRAL ARKANSAS

CITY           SKY/WX    TMP DP  RH WIND       PRES   REMARKS
MENA           CLOUDY    77  73  88 CALM      30.11S
MOUNT IDA      CLOUDY    75  73  93 VRB3      30.07F
$$

ARZ009-017-025-026-028-260200-
NORTHEAST ARKANSAS

CITY           SKY/WX    TMP DP  RH WIND       PRES   REMARKS
CORNING          N/A     84  81  89 SE5       30.04S HX  98
JONESBORO      CLOUDY    84  77  79 CALM      30.03S HX  94
NEWPORT        CLOUDY    83  79  88 S7        30.04S HX  94
WALNUT RIDGE   CLOUDY    84  75  74 SE5       30.02F HX  92
BLYTHEVILLE    CLOUDY    84  77  79 S6        30.05R HX  94
$$

ARZ022-023-033-042-044-260200-
CENTRAL ARKANSAS

CITY           SKY/WX    TMP DP  RH WIND       PRES   REMARKS
LITTLE ROCK    LGT RAIN  80  74  81 W7        30.06S HX  85
N LITTLE ROCK    N/A     78  75  91 CALM      30.03S
JACKSONVILLE   CLOUDY    79  79  99 W3        30.05S
SEARCY         CLOUDY    80  78  94 SW5       30.06S HX  88
HOT SPRINGS    CLOUDY    75  72  90 CALM      30.08S
RUSSELLVILLE   CLOUDY    74  72  93 E5        30.05S
$$

ARZ036-260200-
EAST ARKANSAS

CITY           SKY/WX    TMP DP  RH WIND       PRES   REMARKS
WEST MEMPHIS   CLOUDY    76  75  97 CALM      30.04R
$$

ARZ050-053-066-070-073-260200-
SOUTHWEST ARKANSAS

CITY           SKY/WX    TMP DP  RH WIND       PRES   REMARKS
ARKADELPHIA    FAIR      75  74  96 CALM      30.06S FOG
CAMDEN         RAIN      73  72  94 CALM      30.06F
TEXARKANA      LGT RAIN  75  74  96 SE3       30.07S FOG
EL DORADO      LGT RAIN  74  74 100 NE7       30.07F
DE QUEEN       CLOUDY    76  73  91 E5        30.05R
$$

ARZ056-057-069-260200-
SOUTHEAST ARKANSAS

CITY           SKY/WX    TMP DP  RH WIND       PRES   REMARKS
PINE BLUFF     LGT RAIN  75  73  93 CALM      30.07R
STUTTGART      CLOUDY    79  72  78 NW5       30.05S
MONTICELLO     CLOUDY    77  73  87 MISG      30.08R

$$





USA.gov is the U.S. government's official web portal to all federal, state and local government web resources and services.